Regional Weather Roundup
Issued by NWS Upton, NY

Current Version | Previous Version | Text Only | Print | Product List | Glossary Off
Versions: 1 2 3 4 5 6 7 8 9 10 11 12 13 14 15 16 17 18 19 20 21 22 23 24 25 26 27 28 29 30 31 32 33 34 35 36 37 38 39 40 41 42 43 44 45 46 47 48 49 50
000 ASUS41 KOKX 190205 RWROKX REGIONAL WEATHER ROUNDUP NATIONAL WEATHER SERVICE NEW YORK NY 900 PM EST THU DEC 18 2014 NOTE: "FAIR" INDICATES FEW OR NO CLOUDS BELOW 12,000 FEET WITH NO SIGNIFICANT WEATHER AND/OR OBSTRUCTIONS TO VISIBILITY. NYZ071-072-176-178-NJZ106-104-190300- NEW YORK CITY METRO AREA CITY SKY/WX TMP DP RH WIND PRES REMARKS CENTRAL PARK CLEAR 38 25 59 NW8 29.98F WCI 32 LAGUARDIA APRT PTCLDY 38 27 64 NW14 29.96F WCI 30 KENNEDY INTL PTCLDY 39 26 59 NW15 29.97F WCI 31 NEWARK/LIBERTY PTCLDY 38 27 64 NW10 29.98S WCI 31 BRNX BOT. GARD N/A N/A N/A N/A NW7 29.98S TETERBORO CLEAR 37 26 64 NW10 29.96F WCI 30 $$ NYZ177-179-078>081-190300- LONG ISLAND NEW YORK CITY SKY/WX TMP DP RH WIND PRES REMARKS FARMINGDALE CLEAR 37 26 64 NW6 29.96S WCI 32 ISLIP PTCLDY 36 26 67 NW8 29.93S WCI 30 SHIRLEY CLEAR 36 27 69 NW8 29.95R WCI 30 WESTHAMPTON CLEAR 33 24 69 W7 29.95R WCI 27 MONTAUK POINT N/A 40 28 62 NW13G20 29.92S WCI 32 $$ NYZ052-065-067-190300- HUDSON VALLEY CITY SKY/WX TMP DP RH WIND PRES REMARKS WHITE PLAINS MOCLDY 35 26 69 NW12 29.92F WCI 27 NEWBURGH PTCLDY 36 27 69 NW13G20 29.95R WCI 27 MONTGOMERY CLOUDY 36 26 67 NW15G21 29.94F WCI 27 POUGHKEEPSIE MOCLDY 36 25 64 NW5 29.94F WCI 32 ALBANY CLOUDY 33 26 75 NW16G24 29.96F WCI 23 $$ NJZ001-105-106-008-010-013-015-019>022-104-190300- NEW JERSEY CITY SKY/WX TMP DP RH WIND PRES REMARKS NEWARK/LIBERTY PTCLDY 38 27 64 NW10 29.98S WCI 31 TETERBORO CLEAR 37 26 64 NW10 29.96F WCI 30 CALDWELL PTCLDY 37 26 64 NW10 29.97F WCI 30 MORRISTOWN MOCLDY 39 28 65 NW62 29.99S WCI 23 SOMERVILLE CLOUDY 38 26 62 VRB5 29.99R WCI 34 SUSSEX CLOUDY 36 26 67 VRB5 29.97F WCI 32 ANDOVER N/A 36 26 67 VRB7 29.97F WCI 30 TRENTON CLOUDY 35 24 64 W8 30.02R WCI 29 MILLVILLE CLEAR 35 25 66 W10 30.07R WCI 27 ATLANTIC CITY MOCLDY 35 25 66 W10 30.05R WCI 27 WRIGHTSTOWN CLOUDY 35 25 66 W10 30.01R WCI 28 TOMS RIVER MOCLDY 34 25 69 CALM 30.01R BELMAR MOCLDY 36 21 55 W8 30.00R WCI 29 $$ PAZ047>061-062-071-190300- EASTERN PENNSYLVANIA CITY SKY/WX TMP DP RH WIND PRES REMARKS PHILADELPHIA CLOUDY 37 25 61 W14 30.06F WCI 28 ALLENTOWN CLOUDY 37 25 61 W7 30.03R WCI 32 SCRANTON CLOUDY 35 24 64 NW13 29.99S WCI 26 $$ CTZ002-004>006-009-010-012-RIZ004-006-007-MAZ004-011-015-190300- SOUTHERN NEW ENGLAND IN CT CITY SKY/WX TMP DP RH WIND PRES REMARKS BRADLEY INTL CLOUDY 37 25 61 NW8G17 29.91R WCI 31 HARTFORD CLOUDY 37 26 64 VRB7 29.92S WCI 32 DANBURY PTCLDY 34 24 67 W5 29.93F WCI 30 WTRBRY/OXFORD PTCLDY 34 21 60 NW6 29.91S WCI 29 BRIDGEPORT CLEAR 35 26 69 NW5 29.94R WCI 31 MERIDEN MOCLDY 34 26 72 NW8 29.92F WCI 27 NEW HAVEN CLEAR 40 27 59 NW6 29.93S CHESTER FAIR 34 28 80 NW8 29.91R WCI 27 GROTON CLEAR 34 27 75 W7 29.91R WCI 28 WILLIMANTIC CLOUDY 37 26 64 NW7 29.90S WCI 32 IN RI CITY SKY/WX TMP DP RH WIND PRES REMARKS PROVIDENCE PTCLDY 36 26 67 W3 29.89R BLOCK ISLAND PTCLDY 37 25 60 NW10G16 29.90R WCI 30 WESTERLY CLEAR 36 26 67 NW5 29.91R WCI 32 IN MA CITY SKY/WX TMP DP RH WIND PRES REMARKS BOSTON MOCLDY 39 28 64 NW10 29.85F WCI 32 WORCESTER CLOUDY 33 26 75 NW10 29.83F WCI 25 WESTFIELD PTCLDY 35 25 66 NW14G26 29.90S WCI 26 PROVINCETOWN CLOUDY 41 28 60 NW22 29.83S NANTUCKET CLEAR 38 28 67 W10 29.85R WCI 31 $$ ANZ330-335-338-340-345-350-353-355-190300- COASTAL MARINE OBSERVATIONS STATION/POSITION TIME SKY/WX TEMP WIND PRES VSBY WAVE AIR SEA DIR/SP/G HT/PER (UTC) (F) (DEG/KT/KT) (MB) (MI) (FT/S) NY HARB ENTRANCE 0200 40 47 310/ 19/ 23 1014.7 3/ 4 4S FIRE IS 0200 47 N/A 3/ 5 20S FIRE ISLAND 0100 41 49 1014.9 4/ 5 23SW MTP 0200 N/A 5/ 6 HUDSON CANYON 0200 43 55 310/ 19/ 21 1014.3 6/ 6 EXECUTION ROCKS 0200 39 42 300/ 14/ 21 N/A WESTERN LI SOUND 0200 39 300/ 14/ 17 N/A 1/ 3 CENTRAL LI SOUND 0100 40 45 300/ 14/ 16 N/A 3/ 5 EASTERN LI SOUND NOT AVBL ROBBINS REEF 0200 38 330/ 12/ 15 1013.6 $$ >>>>>>>>>>>>>>>>>>>>>>>>>>>> KEY <<<<<<<<<<<<<<<<<<<<<<<<<<< > < > SKY/WX - SKY CONDITION/PRESENT WEATHER < > TMP - TEMPERATURE IN FAHRENHEIT < > DP - DEWPOINT IN FAHRENHEIT < > RH - RELATIVE HUMIDITY IN PERCENT < > WIND - DIRECTION AND SPEED IN MPH < > PRES - MEAN SEA LEVEL PRESSURE IN INCHES OF HG < > WCI - WIND CHILL INDEX < > VSB - VISIBILITY IN MILES < > HX - HEAT INDEX < > TC - TEMPERATURE IN CELSIUS < > VRB - VARIABLE WIND DIRECTION < > < >>>>>>>>>>>>>>>>>>>>>>>>>>>> KEY <<<<<<<<<<<<<<<<<<<<<<<<<<<

USA.gov is the U.S. government's official web portal to all federal, state and local government web resources and services.